Flag for Germany Weather past 2 weeks in Witzenhausen, Hesse, Germany

Now
93 °F

Scattered showers. Scattered clouds.


Feels Like: 94 °F
Forecast: 67 / 92 °F
Wind: 10 mph from South

Location: Kassel / Calden

Current Time: Jul 4, 2015 at 5:50:32 PM

Latest Report: Jul 4, 2015 at 5:20 PM


Visibility: N/A

Pressure: 30.07 "Hg

Humidity: 36%

Dew point: 63 °F

Location of WitzenhausenLocation

Historic Weather in Witzenhausen — Graph

°F

Witzenhausen temperature yesterday

Maximum temperature yesterday: 91 °F (at 4:20 PM)
Minimum temperature yesterday: 66 °F (at 5:50 AM)
Average temperature yesterday: 79 °F

Past Weeks' High & Low Weather Summary

 TemperatureHumidityPressure
High97 °F (Jul 4, 2:20 PM)100% (Jun 23, 6:50 AM)30.27 "Hg (Jun 23, 6:50 AM)
Low46 °F (Jun 23, 5:50 AM)30% (Jun 22, 8:20 AM)29.68 "Hg (Jun 22, 8:20 PM)
Average66 °F65%30.09 "Hg
* Reported Jun 19 4:20 PM — Jul 4 4:20 PM, Witzenhausen, Weather by CustomWeather, © 2015

Note: Actual official high and low records may vary slightly from our data, if they occured in-between our weather recording intervals... More about our weather records

Advertising

Witzenhausen weather history for previous 24 hours

 ConditionsComfort  
Time TempWeatherWind HumidityBarometerVisibility
4:20 PM
Sat, Jul 4
97 °FSunny.12 mph34%30.09 "Hg10 mi
3:50 PM95 °FPassing clouds.8 mph34%30.09 "HgN/A
3:20 PM97 °FSunny.10 mph30%30.09 "Hg10 mi
2:50 PM97 °FPassing clouds.12 mph32%30.09 "HgN/A
2:20 PM97 °FSunny.12 mph32%30.09 "Hg10 mi
1:50 PM93 °FPassing clouds.12 mph39%30.09 "HgN/A
1:20 PM93 °FSunny.12 mph39%30.09 "Hg10 mi
12:50 PM93 °FSunny.12 mph41%30.12 "Hg10 mi
12:20 PM91 °FPassing clouds.13 mph44%30.12 "HgN/A
11:50 AM90 °FSunny.12 mph46%30.12 "Hg10 mi
11:20 AM90 °FPassing clouds.9 mph49%30.12 "HgN/A
10:50 AM88 °FSunny.8 mph52%30.12 "Hg10 mi
10:20 AM84 °FSunny.8 mph55%30.15 "Hg10 mi
9:50 AM82 °FSunny.9 mph58%30.15 "Hg10 mi
9:20 AM81 °FSunny.5 mph62%30.15 "Hg10 mi
8:50 AM79 °FPassing clouds.3 mph65%30.15 "HgN/A
8:20 AM77 °FSunny.5 mph74%30.15 "Hg10 mi
7:50 AM73 °FSunny.2 mph78%30.15 "Hg10 mi
7:20 AM72 °FSunny.2 mph83%30.15 "Hg10 mi
6:50 AM70 °FSunny.1 mph83%30.15 "Hg10 mi
6:20 AM68 °FSunny.2 mph88%30.15 "Hg10 mi
10:50 PM
Fri, Jul 3
73 °FClear.1 mph78%30.21 "Hg10 mi
10:20 PM77 °FSunny.3 mph69%30.21 "Hg10 mi
9:50 PM77 °FSunny.2 mph69%30.21 "Hg10 mi
9:20 PM79 °FSunny.2 mph70%30.21 "Hg10 mi
8:50 PM81 °FSunny.5 mph66%30.21 "Hg10 mi
8:20 PM82 °FSunny.6 mph62%30.21 "Hg10 mi
7:50 PM84 °FSunny.7 mph62%30.21 "Hg10 mi
7:20 PM84 °FSunny.9 mph62%30.18 "Hg10 mi
6:50 PM91 °FPassing clouds.3 mph38%30.18 "HgN/A
6:20 PM91 °FPassing clouds.6 mph38%30.21 "HgN/A
5:50 PM91 °FPassing clouds.7 mph38%30.21 "HgN/A
5:20 PM91 °FPassing clouds.6 mph41%30.21 "HgN/A
Weather by CustomWeather, © 2015

See weather overviewHow to use our weather pages